Weather History for Edinburgh Airport, United Kingdom

Change the Weather History Date:

Friday, August 22, 2014

  Actual Average Record
Temperature  
Mean Temperature 52 °F -  
Max Temperature 60 °F 62 °F 71 °F (2002)
Min Temperature 44 °F 48 °F 37 °F (1999)
Degree Days  
Heating Degree Days 13    
Growing Degree Days 2 (Base 50)    
Moisture  
Dew Point 45 °F    
Average Humidity 79    
Maximum Humidity 100    
Minimum Humidity 55    
Precipitation  
Precipitation 0.00 in 0.09 in - ()
Sea Level Pressure  
Sea Level Pressure 29.82 in    
Wind  
Wind Speed 4 mph ()    
Max Wind Speed 9 mph    
Max Gust Speed -    
Visibility 6.2 miles    
Events Rain    
Averages and records for this station are not official NWS values.
T = Trace of Precipitation, MM = Missing Value Source: Averaged Metar Reports

Daily Weather History Graph

Daily Weather History Graph

Search for Another Location

Airport:

Trip Planner

Search our weather history database for the weather conditions in past years. The results will help you decide how hot, cold, wet, or windy it might be!

Date:

Astronomy

Aug. 22, 2014 Rise Set
Actual Time 5:57 AM BST 8:33 PM BST
Civil Twilight 5:16 AM BST 9:14 PM BST
Nautical Twilight 4:22 AM BST 10:08 PM BST
Astronomical Twilight 3:12 AM BST 11:16 PM BST
Moon 2:52 AM BST (8/22) 6:43 PM BST (8/22)
Length of Visible Light 15h 58m
Length of Day
14h 35m
Waning Crescent, 9% of the Moon is Illuminated
Aug 22
Waning Crescent
Aug 25
New
Sep 2
First Quarter
Sep 9
Full
Sep 16
Last Quarter

Hourly Weather History & Observations

Time (BST) Temp. Windchill Dew Point Humidity Pressure Visibility Wind Dir Wind Speed Gust Speed Precip Events Conditions
12:20 AM 46.4 °F - 46.4 °F 100% 29.77 in 6.2 mi Variable 2.3 mph - N/A   Partly Cloudy
12:50 AM 46.4 °F - 44.6 °F 93% 29.77 in 6.2 mi Calm Calm - N/A   Mostly Cloudy
1:20 AM 46.4 °F 45.2 °F 44.6 °F 93% 29.77 in 6.2 mi West 3.5 mph - N/A   Unknown
1:50 AM 46.4 °F - 44.6 °F 93% 29.77 in - Calm Calm - N/A   Clear
2:20 AM 46.4 °F 43.5 °F 44.6 °F 93% 29.77 in 6.2 mi WSW 5.8 mph - N/A   Mostly Cloudy
2:50 AM 46.4 °F 45.2 °F 44.6 °F 93% 29.77 in 6.2 mi Variable 3.5 mph - N/A   Scattered Clouds
3:20 AM 46.4 °F 43.5 °F 44.6 °F 93% 29.77 in 6.2 mi West 5.8 mph - N/A   Mostly Cloudy
3:50 AM 46.4 °F 43.5 °F 44.6 °F 93% 29.77 in - WSW 5.8 mph - N/A   Clear
4:20 AM 46.4 °F 43.5 °F 44.6 °F 93% 29.77 in 6.2 mi WSW 5.8 mph - N/A   Mostly Cloudy
4:50 AM 44.6 °F 41.4 °F 42.8 °F 93% 29.77 in - WSW 5.8 mph - N/A   Clear
5:20 AM 44.6 °F 43.1 °F 42.8 °F 93% 29.77 in - WSW 3.5 mph - N/A   Clear
5:50 AM 44.6 °F 42.2 °F 42.8 °F 93% 29.80 in - WSW 4.6 mph - N/A   Clear
6:20 AM 44.6 °F - 42.8 °F 93% 29.80 in - WSW 2.3 mph - N/A   Clear
6:50 AM 44.6 °F 43.1 °F 42.8 °F 93% 29.80 in - WSW 3.5 mph - N/A   Clear
7:20 AM 46.4 °F 44.3 °F 42.8 °F 87% 29.80 in - West 4.6 mph - N/A   Clear
7:50 AM 48.2 °F - 44.6 °F 87% 29.80 in - SSW 4.6 mph - N/A   Clear
8:20 AM 50.0 °F - 46.4 °F 87% 29.80 in - WSW 4.6 mph - N/A   Clear
8:50 AM 50.0 °F - 44.6 °F 82% 29.80 in - West 4.6 mph - N/A   Clear
9:20 AM 53.6 °F - 44.6 °F 72% 29.80 in - West 8.1 mph - N/A   Clear
9:50 AM 55.4 °F - 44.6 °F 67% 29.80 in 6.2 mi WNW 6.9 mph - N/A   Partly Cloudy
10:20 AM 55.4 °F - 44.6 °F 67% 29.83 in 6.2 mi WNW 6.9 mph - N/A   Partly Cloudy
10:50 AM 57.2 °F - 44.6 °F 63% 29.83 in 6.2 mi NW 5.8 mph - N/A   Partly Cloudy
11:20 AM 57.2 °F - 44.6 °F 63% 29.83 in 6.2 mi NW 6.9 mph - N/A   Scattered Clouds
11:50 AM 57.2 °F - 44.6 °F 63% 29.83 in 6.2 mi WNW 6.9 mph - N/A   Partly Cloudy
12:20 PM 57.2 °F - 44.6 °F 63% 29.83 in 6.2 mi WNW 8.1 mph - N/A   Partly Cloudy
12:50 PM 55.4 °F - 44.6 °F 67% 29.83 in 6.2 mi WNW 8.1 mph - N/A   Partly Cloudy
1:20 PM 57.2 °F - 44.6 °F 63% 29.83 in 6.2 mi NW 9.2 mph - N/A   Partly Cloudy
1:50 PM 57.2 °F - 46.4 °F 67% 29.83 in 6.2 mi WNW 6.9 mph - N/A Rain Light Rain Showers
2:20 PM 59.0 °F - 44.6 °F 59% 29.83 in 6.2 mi NNW 6.9 mph - N/A   Scattered Clouds
2:50 PM 57.2 °F - 42.8 °F 59% 29.83 in 6.2 mi WNW 8.1 mph - N/A Rain Light Rain Showers
3:20 PM 59.0 °F - 44.6 °F 59% 29.83 in 6.2 mi NW 6.9 mph - N/A   Scattered Clouds
3:50 PM 60.8 °F - 44.6 °F 55% 29.83 in 6.2 mi North 5.8 mph - N/A   Scattered Clouds
4:20 PM 57.2 °F - 44.6 °F 63% 29.83 in 6.2 mi North 9.2 mph - N/A   Partly Cloudy
4:50 PM 57.2 °F - 44.6 °F 63% 29.83 in 6.2 mi North 8.1 mph - N/A   Partly Cloudy
5:20 PM 55.4 °F - 44.6 °F 67% 29.83 in 6.2 mi NW 4.6 mph - N/A   Scattered Clouds
5:50 PM 55.4 °F - 44.6 °F 67% 29.83 in 6.2 mi WSW 3.5 mph - N/A   Scattered Clouds
6:20 PM 57.2 °F - 46.4 °F 67% 29.83 in 6.2 mi SW 6.9 mph - N/A   Scattered Clouds
6:50 PM 55.4 °F - 46.4 °F 72% 29.83 in 6.2 mi Variable 3.5 mph - N/A   Scattered Clouds
7:20 PM 55.4 °F - 48.2 °F 77% 29.83 in 6.2 mi Variable 2.3 mph - N/A   Scattered Clouds
7:50 PM 53.6 °F - 46.4 °F 77% 29.86 in 6.2 mi Calm Calm - N/A   Scattered Clouds
8:20 PM 51.8 °F - 46.4 °F 82% 29.86 in 6.2 mi Calm Calm - N/A   Scattered Clouds
8:50 PM 51.8 °F - 46.4 °F 82% 29.86 in 6.2 mi West 4.6 mph - N/A Rain Light Rain Showers
9:20 PM 51.8 °F - 46.4 °F 82% 29.86 in 6.2 mi West 4.6 mph - N/A Rain Light Rain Showers
9:50 PM 51.8 °F - 46.4 °F 82% 29.86 in 6.2 mi NE 5.8 mph - N/A Rain Light Rain
10:20 PM 50.0 °F - 48.2 °F 94% 29.86 in 6.2 mi Variable 3.5 mph - N/A Rain Light Rain
10:50 PM 51.8 °F - 48.2 °F 88% 29.86 in 6.2 mi South 4.6 mph - N/A Rain Light Rain
11:20 PM 50.0 °F - 46.4 °F 87% 29.86 in - SSW 5.8 mph - N/A   Clear
11:50 PM 48.2 °F - 46.4 °F 93% 29.86 in - WSW 4.6 mph - N/A   Clear